STARLINK-2741 (48684 NORAD) Tracking and Keplerian Element Data

This shows tracking and keplerian element data for the satellite.

Feedback or suggestion? Click here.




ElementValue
Catalog48684
NameSTARLINK-2741
Epoch Orbit177
Epoch Day170.58334491
Epoch Year2021
RAAN306.2493
Inclination53.0478
Eccentricity0.0001409
Argument of Perigee58.5094
Mean Anonmoly71.5143
Mean Motion15.73208514
Decay Rate-8.163E-05
L11 48684U 21044AY 21170.58334491 -.00008163 00000-0 -53763-4 0 9997
L22 48684 53.0478 306.2493 0001409 58.5094 71.5143 15.73208514 1773

Live tracking and technical data element details for STARLINK-2741 (NORAD 48684). STARLINK-2741 can be tracked NOW for your location showing map with azimuth and elevation plus other details from your city location.

Track the satellite on the map from your city or location and see movement details for azimuth, elevation, latitude, longitude, range, height, and movement on the map or in text.







IsCatalogInMostPopularTable: catalog: 48684, numindb: 1
Update: records affected: 1



GetName: 48684 STARLINK-2741

Hit Count: updated at: Mon, 21 Jun 2021 04:10:33 GMT